N622KD KSAV-KPDK

Flight info

Callsign N622KD
Flight time 0h 45m
Altitude 36000
Route SMALZ MMMOE WRGNZ3
Aircraft C700/M-SBDGHM1RWXY/LB2

Departure

Time 2026-05-07 23:44
Airport Savannah Hilton Head International Airport (KSAV)

Arrival

Time 2026-05-08 00:29
Airport DeKalb Peachtree Airport (KPDK)
Time Latitude Longitude Altitude Speed Heading
2026-05-07 23:26 32.12481 -81.19645 51 ft 0 kts 122°
2026-05-07 23:34 32.12483 -81.19649 51 ft 2 kts 104°
2026-05-07 23:35 32.12480 -81.19660 49 ft 1 kts
2026-05-07 23:35 32.12479 -81.19661 49 ft 0 kts
2026-05-07 23:35 32.12480 -81.19661 49 ft 1 kts 359°
2026-05-07 23:36 32.12527 -81.19687 49 ft 13 kts 334°
2026-05-07 23:36 32.12625 -81.19674 53 ft 17 kts 32°
2026-05-07 23:36 32.12684 -81.19595 55 ft 12 kts 61°
2026-05-07 23:36 32.12691 -81.19493 53 ft 13 kts 91°
2026-05-07 23:37 32.12688 -81.19371 59 ft 17 kts 91°
2026-05-07 23:37 32.12688 -81.19218 59 ft 20 kts 91°
2026-05-07 23:37 32.12686 -81.19046 61 ft 22 kts 90°
2026-05-07 23:37 32.12690 -81.18913 53 ft 12 kts 71°
2026-05-07 23:38 32.12730 -81.18880 59 ft 0 kts
2026-05-07 23:42 32.12758 -81.18877 60 ft 12 kts
2026-05-07 23:42 32.12835 -81.18875 58 ft 4 kts 348°
2026-05-07 23:42 32.12847 -81.18892 55 ft 0 kts 287°
2026-05-07 23:43 32.12847 -81.18896 55 ft 0 kts 274°
2026-05-07 23:44 32.12848 -81.18929 56 ft 23 kts 271°
2026-05-07 23:44 32.12850 -81.19531 54 ft 123 kts 271°
2026-05-07 23:44 32.12869 -81.20795 677 ft 170 kts 267°
2026-05-07 23:44 32.12851 -81.22250 2173 ft 181 kts 267°
2026-05-07 23:45 32.12783 -81.23854 3009 ft 217 kts 267°
2026-05-07 23:45 32.12708 -81.25728 3018 ft 234 kts 266°
2026-05-07 23:45 32.12623 -81.27646 3010 ft 233 kts 266°
2026-05-07 23:45 32.12542 -81.29550 2998 ft 231 kts 266°
2026-05-07 23:46 32.12461 -81.31431 3001 ft 233 kts 267°
2026-05-07 23:46 32.12369 -81.33347 2996 ft 234 kts 266°
2026-05-07 23:46 32.12272 -81.35269 3000 ft 234 kts 266°
2026-05-07 23:46 32.12214 -81.37182 2989 ft 231 kts 274°
2026-05-07 23:47 32.12891 -81.38922 3238 ft 244 kts 304°
2026-05-07 23:47 32.14128 -81.40216 5120 ft 241 kts 321°
2026-05-07 23:47 32.15764 -81.40955 6732 ft 259 kts 336°
2026-05-07 23:47 32.17516 -81.41542 8330 ft 264 kts 336°
2026-05-07 23:48 32.19288 -81.42187 9905 ft 269 kts 334°
2026-05-07 23:48 32.21126 -81.42895 11078 ft 291 kts 334°
2026-05-07 23:48 32.23095 -81.43639 12440 ft 298 kts 334°
2026-05-07 23:48 32.25086 -81.44367 14070 ft 301 kts 333°
2026-05-07 23:49 32.27081 -81.45113 15367 ft 308 kts 332°
2026-05-07 23:49 32.29154 -81.45898 16626 ft 317 kts 332°
2026-05-07 23:49 32.31285 -81.46698 17869 ft 326 kts 331°
2026-05-07 23:49 32.33480 -81.47518 19001 ft 334 kts 331°
2026-05-07 23:50 32.35634 -81.48486 20171 ft 329 kts 323°
2026-05-07 23:50 32.37637 -81.49781 21242 ft 327 kts 317°
2026-05-07 23:50 32.39474 -81.51370 22316 ft 326 kts 310°
2026-05-07 23:50 32.41106 -81.53214 23341 ft 325 kts 303°
2026-05-07 23:51 32.42523 -81.55296 24214 ft 324 kts 297°
2026-05-07 23:51 32.43683 -81.57538 25131 ft 322 kts 291°
2026-05-07 23:51 32.44609 -81.59993 26076 ft 322 kts 285°
2026-05-07 23:51 32.45243 -81.62502 26963 ft 323 kts 279°
2026-05-07 23:52 32.45607 -81.65137 27817 ft 326 kts 274°
2026-05-07 23:52 32.45678 -81.67826 28698 ft 329 kts 268°
2026-05-07 23:52 32.45452 -81.70534 29551 ft 333 kts 263°
2026-05-07 23:52 32.45109 -81.73276 30332 ft 338 kts 263°
2026-05-07 23:53 32.44780 -81.76051 31054 ft 341 kts 263°
2026-05-07 23:53 32.44444 -81.78850 31744 ft 345 kts 263°
2026-05-07 23:53 32.44101 -81.81644 32384 ft 349 kts 262°
2026-05-07 23:53 32.43750 -81.84499 33012 ft 352 kts 262°
2026-05-07 23:54 32.43396 -81.87398 33842 ft 350 kts 262°
2026-05-07 23:54 32.43053 -81.90198 34641 ft 347 kts 262°
2026-05-07 23:54 32.42708 -81.93011 35479 ft 343 kts 262°
2026-05-07 23:54 32.42363 -81.95813 35929 ft 349 kts 262°
2026-05-07 23:55 32.42005 -81.98724 35938 ft 365 kts 262°
2026-05-07 23:55 32.41631 -82.01756 35950 ft 379 kts 262°
2026-05-07 23:55 32.41241 -82.04903 35954 ft 391 kts 262°
2026-05-07 23:55 32.40934 -82.08111 35953 ft 390 kts 266°
2026-05-07 23:56 32.41005 -82.14412 35946 ft 381 kts 273°
2026-05-07 23:56 32.41898 -82.20582 35938 ft 382 kts 278°
2026-05-07 23:57 32.42987 -82.26768 35928 ft 386 kts 278°
2026-05-07 23:57 32.44094 -82.33006 35913 ft 387 kts 278°
2026-05-07 23:58 32.45192 -82.39234 35925 ft 385 kts 278°
2026-05-07 23:58 32.46279 -82.45417 35928 ft 382 kts 278°
2026-05-07 23:59 32.47360 -82.51579 35916 ft 382 kts 278°
2026-05-07 23:59 32.48434 -82.57728 35869 ft 386 kts 278°
2026-05-08 00:00 32.48977 -82.60840 35376 ft 375 kts 278°
2026-05-08 00:00 32.49506 -82.63861 34892 ft 370 kts 278°
2026-05-08 00:00 32.50027 -82.66871 34413 ft 375 kts 277°
2026-05-08 00:00 32.50589 -82.69912 33908 ft 380 kts 280°
2026-05-08 00:01 32.51372 -82.72902 33386 ft 381 kts 284°
2026-05-08 00:01 32.52375 -82.75813 32882 ft 383 kts 288°
2026-05-08 00:01 32.53582 -82.78594 32397 ft 386 kts 292°
2026-05-08 00:01 32.55027 -82.81304 31875 ft 391 kts 297°
2026-05-08 00:02 32.56693 -82.83883 31365 ft 397 kts 301°
2026-05-08 00:02 32.58583 -82.86311 30842 ft 404 kts 306°
2026-05-08 00:02 32.60684 -82.88557 30310 ft 410 kts 310°
2026-05-08 00:02 32.62876 -82.90739 29732 ft 411 kts 310°
2026-05-08 00:03 32.65053 -82.92933 29184 ft 407 kts 310°
2026-05-08 00:03 32.67195 -82.95098 28645 ft 402 kts 310°
2026-05-08 00:03 32.69320 -82.97239 28152 ft 398 kts 310°
2026-05-08 00:03 32.71402 -82.99335 27596 ft 395 kts 310°
2026-05-08 00:04 32.73490 -83.01442 27075 ft 391 kts 310°
2026-05-08 00:04 32.75559 -83.03532 26556 ft 388 kts 310°
2026-05-08 00:04 32.77609 -83.05604 26043 ft 386 kts 310°
2026-05-08 00:04 32.79651 -83.07669 25532 ft 384 kts 310°
2026-05-08 00:05 32.81687 -83.09727 25023 ft 382 kts 310°
2026-05-08 00:05 32.83709 -83.11774 24516 ft 380 kts 310°
2026-05-08 00:05 32.85687 -83.13776 24018 ft 377 kts 310°
2026-05-08 00:05 32.87679 -83.15793 23527 ft 374 kts 310°
2026-05-08 00:06 32.89652 -83.17795 22989 ft 370 kts 310°
2026-05-08 00:06 32.91598 -83.19770 22504 ft 366 kts 310°
2026-05-08 00:06 32.93534 -83.21734 22022 ft 364 kts 310°
2026-05-08 00:06 32.95461 -83.23693 21541 ft 362 kts 310°
2026-05-08 00:07 32.97345 -83.25609 21071 ft 360 kts 310°
2026-05-08 00:07 32.99277 -83.27572 20592 ft 358 kts 310°
2026-05-08 00:07 33.01135 -83.29460 20124 ft 353 kts 310°
2026-05-08 00:07 33.02992 -83.31351 19660 ft 348 kts 310°
2026-05-08 00:08 33.04823 -83.33217 19216 ft 344 kts 310°
2026-05-08 00:08 33.06634 -83.35064 18764 ft 341 kts 310°
2026-05-08 00:08 33.08432 -83.36899 18315 ft 338 kts 310°
2026-05-08 00:08 33.10215 -83.38719 17833 ft 336 kts 310°
2026-05-08 00:09 33.11987 -83.40526 17389 ft 333 kts 310°
2026-05-08 00:09 33.13738 -83.42316 16998 ft 330 kts 310°
2026-05-08 00:09 33.15466 -83.44080 16566 ft 329 kts 310°
2026-05-08 00:09 33.17148 -83.45916 16155 ft 327 kts 308°
2026-05-08 00:10 33.18821 -83.47762 15710 ft 326 kts 309°
2026-05-08 00:10 33.20519 -83.49546 15281 ft 324 kts 311°
2026-05-08 00:10 33.22252 -83.51251 14855 ft 321 kts 312°
2026-05-08 00:10 33.23963 -83.52948 14433 ft 317 kts 311°
2026-05-08 00:11 33.25639 -83.54656 14016 ft 314 kts 311°
2026-05-08 00:11 33.27286 -83.56337 13578 ft 306 kts 311°
2026-05-08 00:11 33.28852 -83.57911 13181 ft 287 kts 311°
2026-05-08 00:11 33.30335 -83.59405 12811 ft 270 kts 311°
2026-05-08 00:12 33.31726 -83.60818 12464 ft 255 kts 311°
2026-05-08 00:12 33.33048 -83.62167 12145 ft 246 kts 311°
2026-05-08 00:12 33.34348 -83.63491 11830 ft 246 kts 311°
2026-05-08 00:12 33.35666 -83.64839 11508 ft 253 kts 311°
2026-05-08 00:13 33.37047 -83.66183 11173 ft 261 kts 316°
2026-05-08 00:13 33.38634 -83.67297 11019 ft 264 kts 324°
2026-05-08 00:13 33.40369 -83.68130 10675 ft 275 kts 332°
2026-05-08 00:13 33.42186 -83.68858 10326 ft 275 kts 332°
2026-05-08 00:14 33.43382 -83.69355 10100 ft 275 kts 332°
2026-05-08 00:14 33.45778 -83.70358 9523 ft 274 kts 333°
2026-05-08 00:14 33.47579 -83.71104 9068 ft 273 kts 333°
2026-05-08 00:14 33.48794 -83.71606 8755 ft 272 kts 334°
2026-05-08 00:15 33.50563 -83.72339 8313 ft 271 kts 334°
2026-05-08 00:15 33.52329 -83.73071 8057 ft 263 kts 334°
2026-05-08 00:15 33.54031 -83.73774 8044 ft 257 kts 333°
2026-05-08 00:15 33.55742 -83.74493 8048 ft 265 kts 333°
2026-05-08 00:16 33.57505 -83.75230 8058 ft 271 kts 334°
2026-05-08 00:16 33.59300 -83.75972 8059 ft 273 kts 334°
2026-05-08 00:16 33.61112 -83.76724 7789 ft 280 kts 334°
2026-05-08 00:16 33.62938 -83.77485 7379 ft 278 kts 334°
2026-05-08 00:17 33.64750 -83.78234 6967 ft 271 kts 334°
2026-05-08 00:17 33.66519 -83.78969 6560 ft 266 kts 334°
2026-05-08 00:17 33.68256 -83.79694 6140 ft 263 kts 334°
2026-05-08 00:17 33.69962 -83.80410 5722 ft 263 kts 335°
2026-05-08 00:18 33.71694 -83.81133 5310 ft 265 kts 335°
2026-05-08 00:18 33.73440 -83.81860 4886 ft 264 kts 336°
2026-05-08 00:18 33.75182 -83.82586 4460 ft 264 kts 336°
2026-05-08 00:18 33.76911 -83.83308 4064 ft 261 kts 336°
2026-05-08 00:19 33.78566 -83.83995 4050 ft 250 kts 337°
2026-05-08 00:19 33.80218 -83.84686 4018 ft 254 kts 336°
2026-05-08 00:19 33.81849 -83.85523 4015 ft 253 kts 327°
2026-05-08 00:19 33.83242 -83.86781 4016 ft 249 kts 314°
2026-05-08 00:20 33.84449 -83.88261 4015 ft 247 kts 312°
2026-05-08 00:20 33.85655 -83.89719 4014 ft 246 kts 312°
2026-05-08 00:20 33.86866 -83.91176 4019 ft 247 kts 312°
2026-05-08 00:20 33.88074 -83.92643 4023 ft 249 kts 313°
2026-05-08 00:21 33.89304 -83.94135 4018 ft 250 kts 313°
2026-05-08 00:21 33.90545 -83.95588 4027 ft 249 kts 316°
2026-05-08 00:21 33.91881 -83.96930 4027 ft 250 kts 319°
2026-05-08 00:21 33.93240 -83.98237 4028 ft 250 kts 319°
2026-05-08 00:22 33.94597 -83.99541 4027 ft 250 kts 319°
2026-05-08 00:22 33.95954 -84.00850 4029 ft 251 kts 319°
2026-05-08 00:22 33.97308 -84.02150 4029 ft 250 kts 319°
2026-05-08 00:22 33.98669 -84.03445 4024 ft 249 kts 319°
2026-05-08 00:23 34.00023 -84.04734 4020 ft 248 kts 319°
2026-05-08 00:23 34.01384 -84.06036 4025 ft 251 kts 319°
2026-05-08 00:23 34.02760 -84.07352 4025 ft 253 kts 319°
2026-05-08 00:23 34.04135 -84.08668 4023 ft 251 kts 319°
2026-05-08 00:24 34.05495 -84.09999 3857 ft 254 kts 315°
2026-05-08 00:24 34.06420 -84.11784 3481 ft 254 kts 287°
2026-05-08 00:24 34.06426 -84.13889 3094 ft 254 kts 257°
2026-05-08 00:24 34.05589 -84.15711 3001 ft 241 kts 237°
2026-05-08 00:25 34.04579 -84.17248 2992 ft 225 kts 235°
2026-05-08 00:25 34.03600 -84.18654 2987 ft 214 kts 234°
2026-05-08 00:25 34.02659 -84.20007 2994 ft 207 kts 234°
2026-05-08 00:25 34.01772 -84.21292 2989 ft 197 kts 234°
2026-05-08 00:26 34.00919 -84.22517 2996 ft 185 kts 234°
2026-05-08 00:26 34.00095 -84.23681 2994 ft 181 kts 232°
2026-05-08 00:26 33.99122 -84.24676 3002 ft 186 kts 220°
2026-05-08 00:26 33.97954 -84.25377 3011 ft 186 kts 207°
2026-05-08 00:27 33.96788 -84.25925 2839 ft 177 kts 206°
2026-05-08 00:27 33.95658 -84.26442 2582 ft 170 kts 205°
2026-05-08 00:27 33.94587 -84.26916 2346 ft 155 kts 206°
2026-05-08 00:27 33.93642 -84.27346 2146 ft 140 kts 207°
2026-05-08 00:28 33.92757 -84.27749 1972 ft 135 kts 208°
2026-05-08 00:28 33.91876 -84.28158 1818 ft 137 kts 207°
2026-05-08 00:28 33.90970 -84.28557 1634 ft 138 kts 204°
2026-05-08 00:28 33.90086 -84.28953 1468 ft 129 kts 203°
2026-05-08 00:29 33.89262 -84.29314 1269 ft 121 kts 207°
2026-05-08 00:29 33.88477 -84.29677 1072 ft 122 kts 206°
2026-05-08 00:29 33.87730 -84.30010 1000 ft 99 kts 203°
2026-05-08 00:29 33.87268 -84.30210 999 ft 38 kts 200°
2026-05-08 00:30 33.87156 -84.30264 1003 ft 13 kts 202°
2026-05-08 00:30 33.87136 -84.30349 1002 ft 11 kts 291°
2026-05-08 00:30 33.87144 -84.30375 1000 ft 0 kts 291°
2026-05-08 00:32 33.87146 -84.30380 999 ft 6 kts 291°
2026-05-08 00:32 33.87182 -84.30494 997 ft 14 kts 291°
2026-05-08 00:32 33.87254 -84.30486 999 ft 18 kts 20°
2026-05-08 00:32 33.87344 -84.30483 1001 ft 1 kts 273°